Eielson AFB, AK

5:22 AM AKST on December 03, 2016 (GMT -0900)
Eielson Air Force Base

Weather History for PAEI - May, 2013

Change the Weather History Date:

Saturday, May 11, 2013

  Actual Average Record
Temperature  
Mean Temperature 47 °F -  
Max Temperature 59 °F 55 °F 77 °F (2005)
Min Temperature 35 °F 34 °F 17 °F (1964)
Degree Days  
Heating Degree Days 18    
Moisture  
Dew Point 26 °F    
Average Humidity 46    
Maximum Humidity 72    
Minimum Humidity 25    
Precipitation  
Precipitation 0.00 in - - ()
Sea Level Pressure  
Sea Level Pressure 29.78 in    
Wind  
Wind Speed 3 mph (West)    
Max Wind Speed 10 mph    
Max Gust Speed 17 mph    
Visibility 10 miles    
Events      
Averages and records for this station are not official NWS values.
T = Trace of Precipitation, MM = Missing Value Source: NWS Daily Summary

Daily Weather History Graph

Daily Weather History Graph

Search for Another Location

Airport or City:

Trip Planner

Search our weather history database for the weather conditions in past years. The results will help you decide how hot, cold, wet, or windy it might be!

Date:

Astronomy

May. 11, 2013 Rise Set
Actual Time 4:39 AM AKDT 10:52 PM AKDT
Civil Twilight 3:02 AM AKDT 12:33 AM AKDT
Nautical Twilight Sun does not rise Sun does not rise
Astronomical Twilight Sun does not rise Sun does not rise
Moon 5:41 AM AKDT (5/11) No Moon Set
Length of Visible Light 21h 30m
Length of Day
18h 12m
Waxing Crescent, 3% of the Moon is Illuminated
May 11
Waxing Crescent
May 17
First Quarter
May 24
Full
May 31
Last Quarter
Jun 8
New

Hourly Weather History & Observations

Time (AKDT) Temp. Windchill Dew Point Humidity Pressure Visibility Wind Dir Wind Speed Gust Speed Precip Events Conditions
12:55 AM 39.4 °F - 24.4 °F 55% 29.94 in 10.0 mi Calm Calm - N/A   Clear
1:55 AM 38.1 °F - 24.6 °F 58% 29.93 in 10.0 mi Calm Calm - N/A   Mostly Cloudy
2:55 AM 36.7 °F 34.1 °F 26.6 °F 67% 29.91 in 10.0 mi SSE 3.5 mph - N/A   Overcast
3:55 AM 35.2 °F 31.2 °F 26.2 °F 70% 29.90 in 10.0 mi Variable 4.6 mph - N/A   Overcast
4:55 AM 35.4 °F - 27.3 °F 72% 29.89 in 10.0 mi Calm Calm - N/A   Overcast
5:55 AM 36.0 °F - 25.5 °F 66% 29.87 in 10.0 mi Calm Calm - N/A   Overcast
6:55 AM 36.7 °F - 27.1 °F 68% 29.86 in 10.0 mi Calm Calm - N/A   Overcast
7:55 AM 39.4 °F - 26.6 °F 60% 29.86 in 10.0 mi Calm Calm - N/A   Overcast
8:55 AM 42.4 °F - 25.9 °F 52% 29.84 in 10.0 mi Calm Calm - N/A   Overcast
9:55 AM 46.2 °F - 26.6 °F 46% 29.82 in 10.0 mi Calm Calm - N/A   Overcast
10:55 AM 51.1 °F - 27.1 °F 40% 29.80 in 10.0 mi Calm Calm - N/A   Overcast
11:55 AM 54.1 °F - 25.0 °F 32% 29.78 in 10.0 mi Variable 4.6 mph - N/A   Overcast
12:55 PM 57.0 °F - 27.5 °F 32% 29.77 in 10.0 mi WNW 5.8 mph - N/A   Overcast
1:55 PM 57.9 °F - 22.1 °F 25% 29.75 in 10.0 mi Variable 5.8 mph - N/A   Overcast
2:55 PM 59.4 °F - 26.6 °F 29% 29.73 in 10.0 mi WNW 8.1 mph - N/A   Overcast
3:55 PM 58.5 °F - 26.2 °F 29% 29.71 in 10.0 mi West 9.2 mph - N/A   Overcast
4:55 PM 58.8 °F - 27.1 °F 30% 29.69 in 10.0 mi Variable 6.9 mph - N/A   Overcast
7:19 PM 58.8 °F - 27.1 °F 30% 29.68 in 10.0 mi Variable 6.9 mph - N/A   Overcast
7:55 PM 55.4 °F - 28.4 °F 36% 29.66 in 10.0 mi WNW 10.4 mph 17.3 mph N/A   Mostly Cloudy
8:55 PM 52.5 °F - 26.6 °F 37% 29.66 in 10.0 mi West 8.1 mph - N/A   Overcast
9:55 PM 50.0 °F - 26.8 °F 41% 29.66 in 10.0 mi West 8.1 mph - N/A   Overcast
10:55 PM 48.7 °F - 27.3 °F 43% 29.66 in 10.0 mi West 8.1 mph - N/A   Overcast
11:55 PM 46.2 °F 43.3 °F 27.9 °F 49% 29.66 in 10.0 mi West 5.8 mph - N/A   Overcast